CAPE
78 0 76 13 18 77 81 61 91 83 142 201 209 144 95 100 8 3 0 125 214 302 675 550 506 632 1103 1410 1066 1129 1114 1148 1653 1294 880 1094 1223 671 548 965 1257 1274 1085
34 0 0 30 115 103 138 104 68 72 72 209 256 188 94 73 33 25 3 129 468 202 294 343 280 156 286 1461 1496 1427 1439 1491 1600 1298 1273 990 1265 1243 1056 1378 1318 1525 1257
131 85 14 94 109 121 176 181 128 126 121 158 225 163 139 147 152 112 161 214 227 180 181 178 136 117 120 250 1261 1515 1423 1445 1561 1423 1106 1046 1449 1412 1165 1331 1446 1259 1365
116 129 311 207 133 97 88 119 118 143 160 156 197 225 230 299 332 315 249 191 167 119 111 176 144 21 77 158 202 1296 1295 1241 1400 1390 1305 939 1195 1513 1295 962 1298 1287 1380
213 103 59 47 45 133 216 485 444 296 161 193 199 171 223 298 261 300 146 153 119 76 86 100 65 54 32 199 216 469 1110 1236 1095 1182 1241 1143 1079 1369 1267 1241 1081 1009 1174
198 122 149 128 312 221 180 269 527 351 245 179 315 311 186 214 188 126 181 147 101 106 116 96 64 88 57 175 264 317 424 930 663 720 1027 1039 932 1296 1498 1160 1079 1139 1115
541 413 393 561 467 318 356 437 654 468 386 623 593 206 254 212 173 142 98 114 153 150 138 143 108 112 95 56 126 224 390 787 765 694 838 1135 854 1177 1232 1496 1127 1058 1091
935 754 534 261 229 360 361 407 512 302 315 595 309 321 232 201 236 214 137 102 154 245 168 127 104 101 98 80 88 180 334 214 463 850 978 1045 1132 1043 1130 1168 1416 1177 1178
898 634 285 69 81 126 200 278 626 456 542 596 528 416 239 183 179 68 102 134 96 143 132 120 97 99 36 25 50 123 116 367 284 707 1051 1043 954 1049 784 803 937 1107 1286
509 277 235 213 45 32 258 449 604 539 532 468 242 328 336 315 324 201 27 100 55 16 11 24 99 111 118 87 127 118 40 156 135 161 668 1007 1168 837 733 772 983 904 1028
216 222 250 244 144 421 533 660 570 446 524 497 435 388 419 385 291 246 161 103 139 84 11 0 22 43 181 135 76 103 158 79 75 107 208 728 1130 1050 702 798 860 735 793
121 443 362 418 663 657 658 609 592 580 503 460 441 424 388 325 324 392 189 88 98 70 1 0 0 1 152 175 119 129 134 20 5 20 181 156 371 512 391 573 736 725 812
183 527 739 828 808 846 635 633 543 429 386 364 382 420 502 450 360 194 78 100 80 82 29 18 68 49 48 113 112 96 44 2 3 74 138 125 178 306 489 548 595 623 679
452 589 725 657 643 780 539 453 346 245 85 72 75 123 193 150 129 175 235 221 86 118 111 15 78 120 28 116 177 213 46 0 1 61 85 71 116 178 266 318 476 591 869
664 690 413 96 194 473 659 170 124 112 27 0 0 0 0 0 0 0 0 0 23 7 25 107 0 103 52 131 160 154 160 144 65 108 130 147 214 232 247 313 383 414 497
503 315 461 263 277 334 294 106 0 0 0 0 0 0 0 0 0 0 0 0 0 0 0 0 1 21 0 123 194 70 186 142 122 139 167 161 86 33 40 72 122 155 196
671 721 575 269 72 68 0 0 0 0 0 0 0 0 0 0 0 0 0 0 0 0 2 4 0 0 0 0 0 6 29 3 12 7 28 3 0 0 0 0 0 0 0
623 388 191 3 0 0 0 0 0 0 0 0 0 0 0 0 0 0 0 0 0 0 0 0 0 0 0 0 0 0 0 0 9 22 0 0 0 0 0 0 0 0 0
530 472 168 19 0 0 0 0 0 0 0 0 0 0 0 0 0 0 0 0 0 0 0 0 0 0 0 0 0 0 0 0 0 0 0 3 9 3 0 0 0 5 0
250 57 3 1 0 0 0 0 0 0 0 0 0 0 0 0 0 0 0 0 0 0 0 0 0 0 0 0 0 0 0 0 0 0 0 0 0 0 0 0 0 1 0
137 4 0 0 0 0 0 0 0 0 0 0 0 0 0 0 0 0 0 0 0 0 0 0 0 0 0 0 0 0 0 0 0 0 0 0 0 0 0 0 0 0 0
11 0 0 0 0 0 0 0 0 0 0 0 0 0 0 0 0 0 0 0 0 0 0 0 0 0 0 0 0 0 0 0 0 0 0 0 0 0 0 0 0 0 0
0 0 0 0 0 0 0 0 0 0 0 0 0 0 0 0 0 0 0 0 0 0 0 0 0 0 0 0 0 0 0 0 0 0 0 0 0 0 0 0 0 0 0
0 0 0 0 0 0 0 0 0 0 0 0 0 0 0 0 0 0 0 0 0 0 0 0 0 0 0 0 0 0 0 0 0 0 0 0 0 0 0 0 0 0 0
0 0 0 0 0 0 0 0 0 0 0 0 0 0 0 0 0 0 0 0 0 0 0 0 0 0 0 0 0 0 0 0 0 0 0 0 0 0 0 0 0 0 0
0 0 0 0 0 0 0 0 0 0 0 0 0 0 0 0 0 0 0 0 0 0 0 0 0 0 0 0 0 0 0 0 0 0 0 0 0 0 0 0 0 0 0
CIN
-101 -0 -78 -104 -87 -52 -60 -50 -39 -41 -36 -48 -45 -40 -46 -53 -95 -41 -0 -60 -34 -28 -6 -16 -36 -10 -1 -0 -8 -6 -16 -16 -0 -4 -15 -1 -0 -15 -20 -5 -0 -0 -0
-118 -0 -0 -83 -76 -44 -69 -43 -47 -35 -26 -23 -30 -52 -44 -56 -97 -112 -88 -73 -24 -29 -31 -12 -16 -12 -15 -0 -0 -0 -0 -3 -0 -1 -5 -8 -0 -1 -4 -0 -0 -0 -0
-120 -100 -147 -77 -64 -40 -40 -38 -37 -37 -29 -30 -23 -35 -46 -60 -80 -67 -46 -26 -26 -24 -22 -17 -12 -18 -16 -10 -0 -0 -1 -2 -1 -1 -15 -16 -0 -0 -0 -0 -0 -0 -1
-144 -101 -78 -80 -58 -66 -71 -81 -66 -40 -37 -34 -36 -27 -44 -45 -39 -50 -52 -46 -42 -13 -3 -4 -9 -23 -19 -10 -14 -1 -2 -1 -1 -2 -4 -19 -5 -0 -2 -7 -1 -2 -1
-130 -124 -128 -108 -99 -64 -46 -33 -43 -50 -54 -36 -35 -47 -41 -46 -52 -47 -77 -61 -58 -46 -24 -8 -10 -13 -17 -5 -7 -3 -1 -1 -3 -3 -3 -8 -9 -1 -2 -1 -6 -5 -2
-133 -151 -107 -129 -73 -66 -64 -54 -27 -47 -69 -68 -24 -45 -82 -72 -72 -86 -72 -67 -71 -56 -33 -29 -26 -13 -12 -5 -10 -1 -3 -1 -7 -8 -4 -5 -13 -5 -1 -4 -3 -1 -2
-100 -78 -67 -60 -63 -75 -109 -49 -29 -37 -31 -24 -6 -76 -81 -79 -84 -91 -81 -71 -61 -51 -38 -34 -45 -45 -14 -12 -6 -4 -0 -2 -6 -10 -4 -2 -12 -3 -11 -1 -5 -5 -5
-49 -31 -26 -38 -40 -73 -86 -53 -19 -35 -28 -52 -57 -76 -78 -84 -77 -79 -83 -82 -75 -56 -33 -34 -31 -43 -23 -16 -9 -4 -5 -10 -6 -5 -0 -1 -1 -8 -7 -12 -2 -5 -6
-56 -56 -49 -24 -41 -88 -87 -67 -20 -32 -29 -21 -37 -11 -36 -57 -63 -112 -61 -53 -72 -62 -75 -57 -44 -31 -36 -39 -20 -7 -10 -2 -14 -1 -0 -1 -5 -11 -21 -21 -16 -8 -4
-60 -85 -97 -59 -81 -128 -60 -46 -31 -24 -36 -32 -73 -57 -33 -19 -9 -49 -106 -71 -105 -128 -136 -98 -85 -27 -18 -33 -40 -21 -34 -12 -30 -22 -2 -0 -1 -10 -22 -20 -9 -13 -10
-126 -117 -110 -112 -110 -62 -48 -29 -29 -34 -40 -34 -28 -35 -16 -15 -12 -6 -20 -30 -41 -57 -117 -0 -95 -108 -73 -23 -13 -31 -14 -12 -14 -40 -15 -1 -0 -4 -14 -18 -9 -13 -13
-145 -92 -93 -71 -37 -33 -20 -20 -24 -28 -33 -37 -30 -29 -16 -4 -3 -1 -14 -50 -34 -45 -15 -0 -0 -58 -55 -63 -46 -10 -15 -15 -23 -16 -28 -28 -21 -38 -43 -25 -10 -12 -10
-111 -66 -45 -23 -20 -13 -23 -22 -25 -38 -45 -43 -36 -20 -10 -7 -7 -11 -33 -17 -17 -20 -69 -106 -38 -30 -110 -52 -34 -40 -37 -32 -21 -45 -39 -32 -32 -41 -22 -20 -10 -12 -23
-72 -54 -38 -29 -25 -7 -24 -34 -34 -44 -61 -79 -91 -65 -21 -33 -27 -3 -0 -0 -48 -16 -11 -68 -50 -30 -108 -77 -14 -12 -66 -0 -9 -12 -56 -69 -32 -38 -34 -26 -23 -14 -10
-64 -45 -72 -168 -101 -48 -22 -53 -49 -56 -118 -0 -0 -0 -0 -0 -0 -0 -0 -0 -83 -102 -76 -21 -0 -23 -48 -30 -6 -20 -27 -18 -12 -31 -23 -35 -19 -13 -18 -15 -23 -32 -18
-83 -100 -64 -81 -66 -48 -51 -71 -0 -0 -0 -0 -0 -0 -0 -0 -0 -0 -0 -0 -0 -0 -1 -0 -3 -28 -0 -15 -8 -34 -6 -9 -12 -15 -9 -4 -34 -36 -52 -33 -59 -65 -66
-72 -56 -48 -59 -91 -101 -0 -0 -0 -0 -0 -0 -0 -0 -0 -0 -0 -0 -0 -0 -0 -0 -4 -7 -0 -0 -0 -0 -0 -18 -45 -36 -100 -24 -78 -20 -0 -0 -0 -0 -0 -0 -53
-65 -76 -107 -239 -11 -0 -0 -0 -0 -0 -0 -0 -0 -0 -0 -0 -0 -0 -0 -0 -0 -0 -0 -0 -0 -0 -0 -0 -0 -0 -0 -0 -25 -36 -0 -0 -0 -0 -0 -0 -0 -0 -0
-73 -53 -93 -143 -0 -0 -0 -0 -0 -0 -0 -0 -0 -0 -0 -0 -0 -0 -0 -0 -0 -0 -0 -0 -0 -0 -0 -0 -0 -0 -0 -0 -0 -0 -0 -10 -3 -9 -0 -13 -0 -75 -0
-134 -202 -124 -55 -0 -0 -0 -0 -0 -0 -0 -0 -0 -0 -0 -0 -0 -0 -0 -0 -0 -0 -0 -0 -0 -0 -0 -0 -0 -0 -0 -0 -0 -0 -0 -0 -0 -0 -0 -0 -0 -13 -4
-217 -68 -0 -0 -0 -0 -0 -0 -0 -0 -0 -0 -0 -0 -0 -0 -0 -0 -0 -0 -0 -0 -0 -0 -0 -0 -0 -0 -0 -0 -0 -0 -0 -0 -0 -0 -0 -0 -0 -0 -0 -0 -0
-282 -0 -0 -0 -0 -0 -0 -0 -0 -0 -0 -0 -0 -0 -0 -0 -0 -0 -0 -0 -0 -0 -0 -0 -0 -0 -0 -0 -0 -0 -0 -0 -0 -0 -0 -0 -0 -0 -0 -0 -0 -0 -0
-0 -0 -0 -0 -0 -0 -0 -0 -0 -0 -0 -0 -0 -0 -0 -0 -0 -0 -0 -0 -0 -0 -0 -0 -0 -0 -0 -0 -0 -0 -0 -0 -0 -0 -0 -0 -0 -0 -0 -0 -0 -0 -0
-0 -0 -0 -0 -0 -0 -0 -0 -0 -0 -0 -0 -0 -0 -0 -0 -0 -0 -0 -0 -0 -0 -0 -0 -0 -0 -0 -0 -0 -0 -0 -0 -0 -0 -0 -0 -0 -0 -0 -0 -0 -0 -0
-0 -0 -0 -0 -0 -0 -0 -0 -0 -0 -0 -0 -0 -0 -0 -0 -0 -0 -0 -0 -0 -0 -0 -0 -0 -0 -0 -0 -0 -0 -0 -0 -0 -0 -0 -0 -0 -0 -0 -0 -0 -0 -0
-0 -0 -0 -0 -0 -0 -0 -0 -0 -0 -0 -0 -0 -0 -0 -0 -0 -0 -0 -0 -0 -0 -0 -0 -0 -0 -0 -0 -0 -0 -0 -0 -0 -0 -0 -0 -0 -0 -0 -0 -0 -0 -0
Wind_Speed
14 14 13 11 10 10 11 10 11 10 9 9 9 8 6 8 7 4 8 14 16 12 13 14 14 14 13 12 14 19 19 13 14 24 25 27 28 29 29 28 26 25 24
14 13 11 9 6 7 6 5 6 6 6 6 7 7 7 7 4 3 3 13 15 13 17 17 14 15 12 14 17 21 19 19 12 17 29 29 29 30 29 30 28 27 25
13 10 8 7 8 11 16 14 17 9 10 8 6 4 3 4 5 3 5 13 11 14 15 15 16 15 15 17 18 20 22 17 18 6 25 32 32 31 31 30 30 28 27
11 8 7 7 8 9 24 25 11 18 3 4 6 4 8 9 8 2 1 4 8 9 15 17 16 16 14 17 20 22 21 22 14 11 16 30 33 33 32 30 30 29 28
7 5 5 6 8 9 13 17 12 13 5 6 7 4 5 8 12 5 2 2 3 6 7 13 15 16 16 15 15 24 22 23 17 12 11 24 30 32 33 33 31 30 30
6 3 3 6 8 11 6 9 5 21 13 12 10 13 6 8 6 5 4 2 3 4 4 5 15 14 15 17 17 24 19 20 18 14 13 22 28 32 33 33 33 32 31
4 4 3 7 11 16 22 10 8 11 21 8 7 10 9 12 12 10 6 3 1 4 8 5 5 6 9 17 14 17 16 16 18 14 14 14 25 28 34 33 32 33 33
8 4 3 3 11 12 19 19 13 10 8 8 9 10 19 17 9 8 7 5 5 5 2 3 1 4 6 6 11 19 18 14 22 12 21 21 20 24 29 33 33 32 34
8 8 7 7 13 17 5 18 19 9 9 10 10 10 10 11 8 8 9 7 6 7 7 6 4 3 2 6 12 11 18 20 26 23 13 33 33 25 26 31 37 34 34
14 13 13 16 18 17 13 12 10 11 10 9 9 9 8 7 8 8 11 8 8 6 7 7 7 4 1 3 4 14 18 11 30 34 34 31 32 26 26 33 38 40 38
15 18 19 19 16 13 10 9 10 10 9 7 7 7 7 7 7 8 11 14 16 14 10 8 6 7 5 5 4 14 16 20 32 32 38 37 31 27 26 31 37 41 41
16 17 17 16 13 10 10 11 11 12 11 10 10 10 10 12 13 11 13 15 15 18 16 14 15 10 7 6 6 8 7 9 15 36 34 37 37 33 34 36 38 39 40
16 16 17 18 19 19 18 17 17 17 17 17 17 16 15 13 13 13 14 15 16 18 17 17 19 18 11 6 5 3 6 14 29 37 36 34 38 36 37 36 37 38 39
15 17 19 20 20 20 20 19 19 19 19 20 20 20 19 21 20 18 16 18 20 18 17 16 19 19 22 18 12 6 6 11 11 35 31 34 38 42 42 42 40 38 41
16 17 18 20 20 20 18 20 20 19 20 21 21 21 21 21 21 21 20 19 18 19 19 18 18 19 21 19 17 16 10 6 9 11 17 34 31 36 38 32 30 29 33
15 16 17 19 20 20 19 19 20 20 20 20 21 21 22 21 21 21 21 21 20 16 16 20 19 19 20 18 18 17 13 6 8 5 3 6 26 22 26 27 28 27 27
14 15 16 18 19 19 18 18 18 19 20 20 21 21 21 21 21 21 22 22 22 21 18 19 20 19 18 18 18 18 13 12 15 12 14 19 21 14 25 26 27 27 26
14 15 16 18 18 18 18 18 18 18 19 19 20 22 21 21 22 21 22 22 23 22 20 20 19 21 18 21 19 18 17 17 18 17 16 21 22 20 21 28 22 30 29
14 15 16 17 19 19 19 19 19 18 19 19 20 21 20 20 21 22 23 23 23 23 22 21 21 20 18 22 20 19 19 20 21 21 21 21 23 26 28 36 34 27 35
14 15 17 18 19 20 20 20 18 18 18 19 19 19 19 19 20 21 23 24 23 23 24 24 23 22 21 21 19 22 23 23 25 22 21 26 27 26 26 29 32 34 39
13 14 16 18 20 21 20 19 18 17 17 18 18 17 18 17 18 20 22 23 24 24 25 25 25 25 25 26 26 25 27 27 27 21 24 26 28 30 30 29 29 32 32
13 13 15 17 20 21 20 20 18 17 16 17 17 16 15 16 18 20 21 22 23 25 27 27 27 28 27 27 26 28 28 29 29 24 33 33 31 33 33 33 31 33 36
12 13 14 17 19 19 19 19 19 19 19 21 17 14 14 14 16 19 21 23 26 27 27 27 28 28 28 27 27 28 29 30 32 33 32 36 32 35 32 31 34 35 36
11 13 14 17 19 19 19 19 19 18 20 23 21 17 16 16 15 18 20 23 26 29 30 30 29 27 28 30 31 31 31 31 31 32 29 36 31 32 32 32 28 25 28
11 12 12 14 16 17 17 19 20 20 21 22 24 25 21 17 14 16 21 26 28 31 30 29 29 28 31 30 30 26 29 30 33 32 28 32 32 35 32 32 32 30 29
10 11 13 13 13 13 15 18 20 21 22 22 24 26 23 19 16 16 21 25 26 23 23 24 27 30 30 28 26 22 25 29 30 31 27 29 31 31 35 33 30 34 36
Wind_Direction
143 140 146 136 132 143 156 153 155 158 162 161 158 159 162 169 163 146 161 180 194 184 182 174 166 171 173 168 164 164 162 148 147 176 184 192 197 218 215 218 221 223 225
147 138 140 130 103 96 84 93 118 117 122 111 147 168 178 173 165 161 213 189 184 186 175 182 182 183 182 183 178 176 170 168 157 164 199 207 213 213 228 226 230 227 230
152 120 123 95 57 2 339 338 326 7 7 41 118 103 125 144 172 164 359 192 188 186 184 187 193 191 193 190 188 184 182 176 174 185 251 221 221 215 223 227 229 233 233
155 133 81 71 56 37 294 266 189 214 112 69 155 112 22 13 351 358 24 184 196 196 204 203 197 203 199 189 190 193 189 186 184 187 263 246 232 229 226 234 234 237 237
133 120 69 46 32 37 8 342 186 185 113 154 172 159 43 12 2 36 62 145 207 213 220 208 210 208 203 200 208 200 191 189 188 204 240 258 249 239 233 232 236 241 240
149 110 70 41 24 9 61 14 179 235 184 185 192 206 171 182 170 169 165 154 189 223 229 217 211 209 202 201 195 196 197 195 192 200 212 257 253 245 241 238 238 236 240
109 123 48 21 359 334 271 164 115 163 243 71 62 22 14 203 201 199 185 169 58 198 196 223 223 238 215 202 206 205 204 201 198 207 209 226 253 252 244 244 246 242 240
106 105 92 92 357 338 305 308 349 31 55 93 57 49 351 360 123 137 133 128 118 128 92 7 355 191 199 279 204 194 193 200 263 226 194 249 249 251 252 248 250 249 244
88 78 89 115 145 159 241 283 321 60 127 124 144 129 92 66 88 116 72 115 125 98 91 117 47 152 197 219 207 208 199 200 261 259 229 249 248 250 253 251 244 249 249
66 70 86 106 124 144 175 187 158 154 141 162 174 171 166 82 70 71 54 71 75 97 82 89 84 117 198 272 223 199 197 228 256 254 253 251 248 250 252 252 246 243 247
64 68 74 87 103 123 152 134 113 111 132 145 164 156 94 74 62 43 27 24 18 22 46 66 100 87 55 335 194 193 196 194 249 253 246 246 250 252 254 254 249 244 244
56 62 70 73 86 103 103 92 77 59 60 68 63 57 50 33 25 24 11 8 8 1 5 11 10 38 69 103 148 170 210 209 253 249 250 247 247 253 251 251 247 247 245
60 65 54 52 46 46 46 45 40 32 31 28 22 23 26 25 22 15 10 3 359 360 2 359 352 356 19 117 84 47 165 172 209 238 245 251 243 246 244 246 248 248 245
63 52 43 41 36 33 35 33 28 22 16 10 5 6 6 359 359 3 3 355 352 358 359 0 355 353 333 343 8 83 126 174 184 241 252 251 244 238 237 237 241 248 241
52 44 35 26 23 18 31 26 23 23 17 14 14 14 10 6 1 1 2 357 355 351 349 354 353 349 345 347 342 337 2 117 147 159 183 251 253 247 242 248 251 256 252
43 34 31 27 24 23 24 26 18 17 14 13 14 13 11 7 2 1 1 354 352 356 352 345 345 344 342 347 344 341 345 9 152 172 222 249 259 257 253 256 254 257 260
42 43 42 33 29 28 28 26 23 19 12 12 14 14 13 10 6 5 1 356 349 345 347 345 340 339 342 342 338 338 349 330 312 313 299 276 270 274 259 256 259 260 261
45 41 39 31 28 27 26 22 18 14 13 13 13 11 9 10 5 4 359 354 349 347 344 339 339 331 336 329 329 325 327 319 310 308 305 279 268 265 268 262 280 261 261
48 43 35 29 24 18 15 15 13 11 10 13 12 13 13 10 5 0 354 349 346 343 340 338 333 335 334 327 323 321 318 313 307 301 295 286 275 269 272 258 264 274 265
45 35 22 18 17 11 7 9 15 16 12 8 13 15 14 12 9 3 355 349 345 342 337 332 328 325 324 323 324 314 309 308 305 306 301 283 282 281 280 270 268 272 265
47 31 25 18 12 6 4 5 8 12 9 10 13 14 13 12 9 1 354 349 346 340 336 332 326 323 316 311 308 310 304 303 302 305 299 293 290 279 279 281 282 278 276
44 37 25 14 10 6 5 2 4 7 8 6 5 10 11 10 3 358 357 354 350 341 335 330 325 319 316 313 310 305 304 301 296 300 293 288 289 285 284 281 284 283 280
34 27 24 16 8 7 8 5 5 5 0 353 355 1 3 357 353 352 349 347 343 339 337 331 323 318 314 313 311 306 303 300 295 297 295 287 291 286 288 289 285 281 282
33 26 18 7 6 5 6 7 5 4 3 359 357 349 345 343 346 346 346 342 339 337 333 328 322 317 314 311 305 302 301 299 298 295 295 288 293 288 289 289 295 292 293
24 20 30 23 14 7 8 8 7 4 358 354 354 352 351 347 346 345 342 338 337 334 332 328 326 321 316 311 311 307 301 300 297 297 297 291 290 288 288 286 285 286 290
14 9 13 19 22 20 11 7 7 6 2 1 360 358 358 359 357 353 347 346 344 347 350 346 337 326 322 319 317 317 309 303 301 301 301 295 292 291 287 287 284 283 284